Regional Weather Roundup
Issued by NWS

Home | Current Version | Previous Version | Text Only | Print | Product List | Glossary Off
Versions: 1 2 3 4 5 6 7 8 9 10 11 12 13 14 15 16 17 18 19 20 21 22 23 24 25 26 27 28 29 30 31 32 33 34 35 36 37 38 39 40 41 42 43 44 45 46 47 48 49 50

000
ASUS43 KLOT 022000
RWRIL

ILLINOIS REGIONAL WEATHER ROUNDUP
NATIONAL WEATHER SERVICE CHICAGO/ROMEOVILLE IL
200 PM CST MON MAR 02 2015

NOTE: "FAIR" INDICATES FEW OR NO CLOUDS BELOW 12,000 FEET WITH NO
SIGNIFICANT WEATHER AND/OR OBSTRUCTIONS TO VISIBILITY.

* THESE STATIONS ARE NOT UNDER NWS QUALITY CONTROL. THEY ALSO MAY NOT
  REPORT WEATHER SUCH AS PRECIPITATION OR FOG.

ILZ001-002-007-009-015-016-024-022100-
NORTHWEST ILLINOIS

CITY           SKY/WX    TMP DP  RH WIND       PRES   REMARKS
MOLINE         FAIR      28  16  60 S7        30.44  WCI  21
STERLING*      FAIR      25  16  68 E5        30.46F WCI  19
$$

ILZ003-004-008-010-011-017-018-022100-
NORTH CENTRAL ILLINOIS

CITY           SKY/WX    TMP DP  RH WIND       PRES   REMARKS
ROCKFORD       CLOUDY    26  13  57 S6        30.46  WCI  19
$$

ILZ005-006-012>014-019>023-022100-
NORTHEAST ILLINOIS

CITY           SKY/WX    TMP DP  RH WIND       PRES   REMARKS
CHICAGO-OHARE  CLOUDY    30  11  45 CALM      30.45
CHICAGO-MIDWAY PTSUNNY   33  12  41 CALM      30.46
AURORA         FAIR      27  12  53 CALM      30.47
WAUKEGAN       FAIR      28  10  46 VRB3      30.44
DUPAGE AIRPORT FAIR      29  13  51 CALM      30.44
WHEELING       FAIR      31  10  41 CALM      30.46
NORTHERLY ISL    N/A     27  16  63 E7          N/A  WCI  20
$$

LMZ740>746-022100-
SOUTHERN LAKE MICHIGAN

STATION/POSITION SKY/WX   TEMP    WIND        PRES    VSBY  WAVE
                          AIR SEA DIR/SP/G                  HT/PER
                          (F)     (DEG/KT/KT) (MB)    (MI)  (FT/S)
$$

ILZ025>027-034>036-040-047-049-050-058-095>099-022100-
WEST-CENTRAL ILLINOIS

CITY           SKY/WX    TMP DP  RH WIND       PRES   REMARKS
QUINCY         CLOUDY    33  17  51 SE5       30.43  WCI  29
$$

ILZ028>032-037-038-041>044-048-051>054-059>061-022100-
CENTRAL ILLINOIS

CITY           SKY/WX    TMP DP  RH WIND       PRES   REMARKS
DECATUR        FAIR      27  19  72 E8        30.46  WCI  19
PEORIA         FAIR      34  16  47 SW3       30.45
SPRINGFIELD    CLOUDY    32  20  61 SE8       30.46  WCI  25
TAYLORVILLE    NOT AVBL
$$

ILZ033-039-045-046-055>057-062-063-022100-
EAST-CENTRAL ILLINOIS

CITY           SKY/WX    TMP DP  RH WIND       PRES   REMARKS
CHAMPAIGN      FAIR      24  17  74 E6        30.46  WCI  17
MATTOON        FAIR      30  20  66 N8        30.44  WCI  22
$$

ILZ079-100>102-022100-
SOUTHWEST ILLINOIS

CITY           SKY/WX    TMP DP  RH WIND       PRES   REMARKS
CAHOKIA*       FAIR      34  18  52 E8        30.46  WCI  27
$$

ILZ064>066-069>071-074>076-080>082-084>086-088>090-092>094-022100-
SOUTH-CENTRAL ILLINOIS

CITY           SKY/WX    TMP DP  RH WIND       PRES   REMARKS
CARBONDALE     FAIR      38  20  48 NE9       30.44  WCI  31
MARION         PTSUNNY   37  21  52 E12       30.45  WCI  30
MT. VERNON     FAIR      32  18  55 NE8       30.46F WCI  25
$$

ILZ067-068-072-073-078-083-087-091-022100-
SOUTHEAST ILLINOIS

CITY           SKY/WX    TMP DP  RH WIND       PRES   REMARKS
LAWRENCEVILLE  FAIR      32  18  56 N8        30.48  WCI  25
$$

ABBREVIATIONS USED IN REMARKS
   TC - TEMPERATURE IN CELSIUS
  WCI - WIND CHILL INDEX
   HX - HEAT INDEX
  VSB - VISIBILITY
$$




USA.gov is the U.S. government's official web portal to all federal, state and local government web resources and services.